Date,TemperatureHighF,TemperatureAvgF,TemperatureLowF,DewpointHighF,DewpointAvgF,DewpointLowF,HumidityHigh,HumidityAvg,HumidityLow,PressureMaxIn,PressureMinIn,WindSpeedMaxMPH,WindSpeedAvgMPH,GustSpeedMaxMPH,PrecipitationSumIn
2014-4-5,53,40,52,45,8,-100,73,73,72,30.02,29.98,3,2,8,0.00
2014-4-6,52,51,50,51,49,44,98,94,74,30.00,29.65,6,2,13,3.44
2014-4-7,63,56,50,53,51,49,98,85,64,29.91,29.60,6,1,13,9.64
2014-4-8,55,51,46,51,48,44,94,88,79,30.09,29.86,7,1,17,8.99
2014-4-9,67,53,42,47,43,40,95,74,40,30.25,30.09,5,1,9,0.01
2014-4-10,79,71,52,55,53,49,89,55,39,30.14,29.98,8,4,17,0.00
2014-4-11,78,67,55,60,56,52,93,71,47,30.14,29.98,6,2,13,0.00
2014-4-12,80,67,57,62,56,-100,95,73,48,30.09,29.90,6,2,14,0.00
2014-4-13,70,68,67,66,62,59,86,82,74,29.91,29.74,4,2,9,0.00
2014-4-14,74,60,46,70,58,41,98,93,81,30.03,29.70,9,3,22,1.22
2014-4-15,56,48,38,41,34,29,83,61,37,30.26,30.04,9,3,18,0.01
2014-4-16,63,51,37,45,37,32,89,63,36,30.25,30.06,3,1,11,0.00
2014-4-17,67,58,44,56,50,42,95,76,59,30.22,30.11,3,0,8,0.00
2014-4-18,75,64,56,60,57,53,92,78,55,30.21,30.08,5,1,12,0.00
2014-4-19,78,65,52,59,54,-100,97,71,44,30.21,30.07,3,1,8,0.00
2014-4-20,83,68,55,60,55,51,96,68,35,30.18,30.01,3,0,8,0.00
2014-4-21,80,70,59,61,58,53,92,69,40,30.06,29.88,6,1,13,0.00
2014-4-22,77,69,63,64,62,59,93,78,59,29.96,29.87,5,2,13,0.00
2014-4-23,84,69,56,62,55,47,97,67,29,29.99,29.85,2,1,7,0.00
2014-4-24,82,69,58,69,61,51,92,77,63,29.90,29.73,8,2,15,0.00
2014-4-25,82,69,54,67,54,47,94,62,31,30.01,29.85,2,0,10,0.00
2014-4-26,88,71,54,70,59,-100,93,70,51,29.93,29.78,4,1,12,0.00
2014-4-27,87,78,72,71,69,65,90,76,48,29.79,29.51,7,3,16,0.00
2014-4-28,83,74,63,71,64,52,94,72,37,29.67,29.49,5,2,15,0.53
2014-4-29,82,69,56,63,55,49,95,66,36,29.82,29.60,3,1,11,0.01
2014-4-30,66,59,50,52,46,44,90,65,46,30.09,29.83,6,1,13,0.01
2014-5-1,76,60,45,48,44,37,95,63,28,30.11,29.98,4,0,12,0.00
2014-5-2,75,63,51,51,46,41,87,57,30,30.04,29.91,3,0,10,0.00
2014-5-3,83,67,50,58,48,-100,92,56,25,30.03,29.96,3,0,9,0.00
2014-5-4,87,72,56,58,54,49,86,57,29,30.08,29.96,6,-20,15,0.00
2014-5-5,88,75,59,63,57,50,79,55,38,30.01,29.85,6,2,17,0.00
2014-5-6,87,74,60,64,61,58,94,67,44,29.93,29.81,6,2,16,0.00
2014-5-7,71,70,70,61,61,61,73,72,70,29.88,29.87,3,2,6,0.00
2014-5-13,75,69,64,69,65,62,94,89,81,30.07,30.00,3,2,9,0.01
2014-5-14,64,59,52,63,56,49,97,92,79,30.17,30.00,7,1,13,1.50
2014-5-15,72,58,45,56,48,43,97,74,39,30.24,30.08,3,0,9,0.13
2014-5-16,81,67,56,61,57,50,96,74,44,30.18,29.99,3,0,7,0.18
2014-5-17,81,70,59,67,58,-100,92,70,48,30.11,29.98,6,2,17,0.01
2014-5-18,83,71,61,67,63,59,96,78,50,30.15,30.04,4,0,10,0.00
2014-5-19,83,71,62,66,57,-100,93,69,52,30.13,30.01,4,1,10,0.00
2014-5-20,85,75,64,70,63,-100,92,70,53,30.14,30.02,5,2,15,0.00
2014-5-21,85,75,65,70,66,63,93,75,54,30.16,30.04,5,1,14,0.00
2014-5-22,85,74,66,68,63,-100,92,72,48,30.17,30.02,3,1,8,0.00
2014-5-23,88,77,66,71,67,63,95,74,46,30.12,29.98,2,0,7,0.00
2014-5-24,88,76,69,71,66,-100,95,73,50,30.08,29.97,2,0,6,0.00
2014-5-25,89,78,68,71,68,65,95,73,47,30.08,29.96,2,0,7,0.00
2014-5-26,88,78,68,71,68,66,94,73,53,30.09,29.99,3,0,9,0.00
2014-5-27,81,74,70,74,70,68,97,89,77,30.02,29.87,3,0,10,0.73
2014-5-28,74,70,69,71,69,68,98,97,91,29.91,29.80,2,0,9,0.70
2014-5-29,83,73,68,74,69,67,97,88,71,29.85,29.75,2,0,5,0.04
2014-5-30,82,74,71,75,71,69,96,92,75,29.88,29.81,2,0,6,0.23
2014-5-31,84,74,69,76,69,-100,98,88,74,29.95,29.87,4,1,9,0.95
2014-6-1,86,76,72,75,72,70,95,88,66,30.00,29.91,3,0,9,0.01
2014-6-2,90,78,71,77,72,70,97,84,64,30.06,29.95,1,0,6,0.01
2014-6-3,89,79,70,75,72,69,97,81,60,30.04,29.91,2,0,5,0.00
2014-6-4,87,79,71,74,72,69,96,81,63,29.95,29.80,3,1,11,0.00
2014-6-5,91,82,73,76,74,71,96,78,58,29.91,29.79,4,1,13,0.00
2014-6-6,94,84,76,79,75,74,94,77,57,29.93,29.83,4,0,12,0.00
2014-6-7,94,82,75,77,72,-100,96,75,53,29.94,29.85,4,1,10,0.00
2014-6-8,93,82,74,77,74,70,93,78,54,29.94,29.78,4,1,10,0.02
2014-6-9,87,76,70,77,72,68,96,88,69,29.85,29.72,5,1,25,0.54
2014-6-10,84,74,68,73,68,65,98,81,54,29.80,29.71,6,2,16,0.48
2014-6-11,90,78,67,70,66,64,91,71,45,29.85,29.77,3,0,13,0.06
2014-6-12,88,77,68,76,72,67,95,83,68,29.93,29.80,5,1,10,0.00
2014-6-13,90,80,73,75,71,67,96,77,49,29.96,29.86,3,0,8,0.00
2014-6-14,89,77,69,75,67,-100,93,79,63,29.98,29.89,2,0,5,0.00
2014-6-15,90,80,71,76,72,69,95,78,58,30.00,29.89,3,0,7,0.00
2014-6-16,89,79,75,77,74,72,93,85,66,30.11,29.99,2,0,8,0.21
2014-6-17,91,81,73,76,74,71,96,79,57,30.09,29.97,3,1,9,0.21
2014-6-18,91,82,75,76,74,72,94,77,56,30.06,29.98,3,0,8,0.00
2014-6-19,91,82,73,75,74,71,94,76,54,30.09,30.00,2,0,8,0.00
2014-6-20,94,83,72,80,74,70,96,76,55,30.08,29.96,3,0,7,0.05
2014-6-21,93,80,73,78,70,-100,96,78,58,30.02,29.88,3,0,8,0.01
2014-6-22,90,81,74,77,74,69,90,80,58,29.95,29.85,3,0,13,0.04
2014-6-23,90,80,70,77,72,67,95,80,49,29.95,29.84,4,1,12,0.27
2014-6-24,88,77,70,79,74,68,97,89,74,30.06,29.93,4,1,10,0.88
2014-6-25,85,77,72,76,72,70,95,86,70,30.07,29.98,2,0,8,0.03
2014-6-26,84,76,71,74,71,68,96,86,70,30.07,29.93,4,0,9,0.05
2014-6-27,80,74,70,72,70,68,94,88,74,30.03,29.94,2,0,7,0.01
2014-6-28,91,75,71,78,68,-100,96,84,65,30.04,29.97,3,1,12,0.38
2014-6-29,91,82,74,78,76,72,98,85,63,30.09,29.98,3,1,11,0.01
2014-6-30,93,84,78,78,76,74,92,77,56,30.03,29.91,4,2,11,0.00
2014-7-1,95,84,76,77,75,74,93,77,51,29.99,29.87,4,1,9,0.00
2014-7-2,91,80,73,78,75,68,95,86,60,30.04,29.95,3,0,9,0.06
2014-7-3,87,78,71,74,71,66,97,80,60,30.13,30.00,2,0,7,0.01
2014-7-4,85,76,67,68,66,64,90,71,56,30.22,30.14,2,0,6,0.00
2014-7-5,89,75,66,70,66,63,93,75,50,30.19,30.06,1,0,5,0.00
2014-7-6,92,79,67,74,70,66,95,75,54,30.08,29.94,3,0,7,0.00
2014-7-7,95,83,74,73,71,67,93,70,42,30.01,29.91,5,1,10,0.00
2014-7-8,96,86,76,77,74,72,90,69,51,30.04,29.92,5,2,10,0.00
2014-7-9,84,79,75,78,75,73,93,88,79,30.05,29.96,2,0,7,0.15
2014-7-10,90,80,73,79,74,71,97,83,64,30.07,29.98,2,0,7,0.06
2014-7-11,97,81,73,77,73,70,95,77,47,30.13,30.04,7,0,14,0.01
2014-7-12,94,81,73,78,73,71,95,75,59,30.13,30.02,1,0,5,0.00
2014-7-13,95,84,76,78,76,74,95,78,53,30.07,29.94,2,0,5,0.00
2014-7-14,99,87,75,78,75,73,94,70,49,29.99,29.85,2,1,8,0.00
2014-7-15,85,79,72,76,73,66,94,81,70,29.96,29.90,4,0,10,0.01
2014-7-16,85,73,62,66,64,61,95,74,50,30.02,29.94,2,0,7,0.01
2014-7-17,82,74,67,70,66,64,96,78,56,30.02,29.94,2,0,7,1.47
2014-7-18,71,68,65,69,66,64,98,96,92,29.96,29.87,3,1,9,2.27
2014-7-19,74,70,66,69,67,65,97,92,83,30.02,29.95,1,0,3,0.02
2014-7-20,79,73,69,71,69,68,97,88,74,30.03,29.95,1,0,4,0.00
2014-7-21,93,78,67,74,70,66,98,79,50,30.06,29.96,2,0,5,0.00
2014-7-22,90,80,71,75,72,69,95,78,60,30.04,29.99,1,0,6,0.00
2014-7-23,94,82,72,77,74,69,97,77,59,30.05,29.91,2,0,6,0.00
2014-7-24,90,78,70,78,72,68,97,83,62,30.02,29.91,0,0,3,0.00
2014-7-25,92,81,71,78,74,69,93,81,63,30.03,29.92,2,0,7,0.00
2014-7-26,93,82,74,79,73,73,96,74,55,30.02,29.93,4,1,8,0.00
2014-7-27,94,85,78,77,75,73,92,75,52,30.03,29.95,3,1,10,0.00
2014-7-28,93,84,76,77,75,72,94,75,50,30.06,29.96,2,0,6,0.09
2014-7-29,90,79,70,73,69,65,94,74,52,30.08,30.01,1,0,6,0.01
2014-7-30,86,75,66,68,65,62,91,72,48,30.09,30.00,2,0,5,0.00
2014-7-31,79,68,69,71,63,65,93,83,71,30.04,29.96,1,0,5,0.01
2014-8-1,72,70,68,70,69,67,97,96,92,29.99,29.93,1,0,9,1.68
2014-8-2,80,72,69,74,69,68,98,90,81,30.01,29.95,2,0,6,0.56
2014-8-3,88,78,73,77,74,72,97,89,69,30.03,29.93,2,0,5,1.22
2014-8-4,89,79,73,78,74,71,96,86,65,30.02,29.95,1,0,6,0.09
2014-8-5,94,83,74,78,75,72,98,78,61,30.06,29.98,1,0,4,0.09
2014-8-6,92,82,73,80,76,72,97,83,60,30.03,29.92,3,0,10,0.22
2014-8-7,95,82,75,79,76,74,97,83,53,29.96,29.85,4,1,10,0.22
2014-8-8,90,82,78,79,77,73,93,85,68,29.98,29.87,4,1,14,0.12
2014-8-9,91,79,75,80,75,72,95,87,70,30.01,29.89,2,0,6,0.10
2014-8-10,91,79,75,82,76,73,98,91,74,30.01,29.93,2,0,7,0.49
2014-8-11,88,78,73,80,75,72,96,90,77,29.99,29.91,2,0,8,0.06
2014-8-12,92,81,70,77,72,68,98,77,52,29.98,29.90,2,0,7,0.01
2014-8-13,90,77,66,70,68,64,96,75,47,30.06,29.98,1,0,5,0.00
2014-8-14,91,77,66,70,66,64,94,72,45,30.06,29.96,2,0,5,0.00
2014-8-15,87,76,66,73,68,65,96,78,54,30.03,29.92,2,0,5,0.00
2014-8-16,94,80,71,79,72,68,93,77,57,29.99,29.88,4,0,10,0.00
2014-8-17,96,82,76,78,75,70,95,79,52,29.98,29.89,5,1,12,0.00
2014-8-18,94,81,74,79,75,71,94,85,59,29.97,29.84,7,1,13,0.06
2014-8-19,96,84,78,78,75,72,88,75,55,29.95,29.84,5,1,10,0.04
2014-8-20,98,84,74,76,73,71,93,72,43,30.04,29.91,1,0,7,0.00
2014-8-21,99,83,74,80,74,71,94,77,51,30.09,30.01,5,1,12,0.00
2014-8-22,93,82,73,77,73,71,96,77,50,30.08,29.96,3,0,8,0.00
2014-8-23,101,84,74,77,73,72,95,71,40,30.02,29.88,3,0,8,0.00
2014-8-24,103,87,75,80,75,73,95,72,43,29.96,29.85,3,0,5,0.00
2014-8-25,95,80,74,80,75,72,95,85,57,29.96,29.89,1,0,5,0.62
2014-8-26,94,81,72,78,73,70,97,79,50,30.04,29.93,1,0,6,0.12
2014-8-27,99,82,70,74,71,68,92,71,40,30.03,29.93,1,0,4,0.00
2014-8-28,92,81,72,77,73,69,93,77,54,29.97,29.87,2,0,8,0.00
2014-8-29,96,83,75,76,74,72,95,75,47,29.95,29.85,2,0,7,0.00
2014-8-30,80,74,74,76,73,73,98,93,86,30.00,29.90,3,0,9,3.21
2014-8-31,88,78,73,79,75,71,97,89,71,30.04,29.96,3,0,8,0.02
2014-9-1,96,82,73,79,75,71,97,82,55,30.01,29.91,2,0,8,0.00
2014-9-2,89,78,73,79,74,71,96,91,68,30.03,29.91,5,0,11,0.13
2014-9-3,95,80,72,78,74,71,98,84,54,30.03,29.94,2,0,8,0.06
2014-9-4,98,83,74,78,76,72,96,80,51,30.05,29.97,2,0,6,0.01
2014-9-5,94,79,72,79,74,71,97,87,53,30.09,29.99,2,0,14,1.23
2014-9-6,96,78,71,80,73,70,98,85,55,30.04,29.91,4,0,13,1.05
2014-9-7,89,79,73,77,74,71,96,86,65,30.05,29.92,3,0,8,0.01
2014-9-8,95,81,72,77,74,70,95,80,53,30.01,29.91,2,0,6,0.00
2014-9-9,97,84,74,79,76,72,96,77,51,29.99,29.85,2,0,7,0.00
2014-9-10,90,83,76,78,76,74,95,79,60,29.90,29.80,4,1,11,0.00
2014-9-11,97,84,76,80,77,74,95,80,53,29.96,29.87,3,0,11,0.19
2014-9-12,83,75,66,75,71,63,95,89,75,30.10,29.96,5,1,11,0.19
2014-9-13,69,64,61,64,60,58,94,87,80,30.20,30.08,5,1,13,0.01
2014-9-14,82,69,63,71,64,60,91,85,68,30.21,30.08,2,0,7,0.00
2014-9-15,89,76,66,75,70,64,93,82,62,30.13,30.04,2,0,5,0.00
2014-9-16,90,79,72,76,72,69,93,80,57,30.09,29.95,1,0,5,0.00
2014-9-17,95,80,71,75,73,69,96,80,48,29.99,29.85,3,0,7,0.00
2014-9-18,89,79,73,77,75,71,96,86,62,29.91,29.83,2,0,9,0.00
2014-9-19,94,79,69,74,71,67,96,80,51,29.98,29.88,3,0,7,0.00
2014-9-20,95,79,70,75,71,68,96,78,45,30.02,29.91,2,0,5,0.00
2014-9-21,97,82,71,75,72,69,96,75,43,30.03,29.93,2,0,7,0.00
2014-9-22,85,76,69,73,60,55,85,60,39,30.13,30.01,4,1,10,0.00
2014-9-23,85,70,58,59,56,52,90,65,33,30.17,30.05,3,0,11,0.00
2014-9-24,86,71,58,65,60,54,90,70,46,30.17,30.09,3,0,8,0.00
2014-9-25,89,74,61,68,62,58,94,69,38,30.19,30.06,2,0,9,0.00
2014-9-26,90,74,63,69,65,61,94,75,47,30.11,30.00,1,0,5,0.00
2014-9-27,88,75,64,68,64,61,94,71,48,30.06,29.95,3,0,10,0.00
2014-9-28,87,75,67,73,68,64,92,80,59,30.04,29.93,1,0,5,0.00
2014-9-29,91,78,72,72,70,66,90,77,49,29.96,29.85,2,0,8,0.00
2014-9-30,93,78,67,72,68,64,92,73,45,29.91,29.78,2,0,5,0.00
2014-10-1,91,80,72,76,72,68,95,79,58,29.89,29.79,3,0,8,0.00
2014-10-2,86,78,70,79,75,67,95,90,73,29.91,29.74,4,1,16,1.13
2014-10-3,81,71,62,69,63,55,97,78,52,30.10,29.79,5,1,13,0.33
2014-10-4,75,61,49,54,47,39,90,64,30,30.18,30.00,3,1,11,0.03
2014-10-5,79,66,53,62,52,46,88,64,34,30.00,29.85,7,1,18,0.00
2014-10-6,78,70,64,68,63,61,91,80,60,29.95,29.85,3,0,11,0.00
2014-10-7,88,73,61,74,67,60,97,84,60,29.98,29.89,6,1,13,0.00
2014-10-8,89,77,71,73,71,69,95,81,57,30.09,29.97,4,0,9,0.00
2014-10-9,88,78,69,75,72,67,95,82,63,30.05,29.91,4,0,8,0.00
2014-10-10,89,78,72,77,73,70,97,86,66,29.97,29.86,5,1,11,0.20
2014-10-11,83,74,69,73,69,65,94,83,58,30.01,29.89,3,1,12,0.02
2014-10-12,87,73,67,74,69,66,97,88,66,29.98,29.79,5,0,21,0.06
2014-10-13,79,68,60,74,67,58,97,94,83,29.85,29.63,6,2,16,2.06
2014-10-14,74,63,55,57,52,48,91,70,42,29.97,29.77,6,2,20,0.03
2014-10-15,78,63,49,53,48,44,91,63,32,30.04,29.93,5,1,14,0.00
2014-10-16,79,63,48,61,53,46,96,74,41,30.01,29.87,3,0,7,0.00
2014-10-17,86,70,58,68,63,56,97,79,53,29.96,29.86,6,1,13,0.00
2014-10-18,78,67,59,64,59,54,95,76,55,30.10,29.92,3,0,8,0.00
2014-10-19,74,62,52,57,53,50,93,74,47,30.18,30.06,4,0,9,0.00
2014-10-20,77,61,48,60,53,46,97,77,50,30.10,29.99,2,0,6,0.00